User: anonymous   Login
Location: Nag� el Ma?a??a
(24.0667°N, 32.8833°E)
Time: 08:02:03
(UTC+00:00)
Language:

Cosmos 1943 - Orbit

View from above orbital plane
View from above orbital plane
View from above satellite
View from above satellite

Ground track
Ground track

The orbit data is extracted from the following two-line orbital elements,

1 19119U 88039A   21340.85233045  .00000193  00000-0  12403-3 0  9995
2 19119  71.0041 270.7790 0009157  93.5031 336.4050 14.15190605732949
Epoch (UTC): 06 December 2021 20:27:21
Eccentricity: 0.0009157
inclination: 71.0041°
perigee height: 835 km
apogee height: 848 km
right ascension of ascending node: 270.7790°
argument of perigee: 93.5031°
revolutions per day: 14.15190605
mean anomaly at epoch: 336.4050°
orbit number at epoch: 73294

The dashed part of the orbit path shows where the satellite is in the earth's shadow,  

DLR